Location: Asheville, NC
(35.6000°N, 82.5500°W)
Time: 10:54:44
(UTC-04:00)

KAITUO 1B - Pass Details

Date: 18 February 2018
Orbit: 498 x 521 km, 97.5° (Epoch: 25 May)

Event Time Altitude Azimuth Distance (km) Brightness Sun altitude
Rises 06:46:25 0° 11° (N) 2,604 ? -6.2°
Reaches altitude 10° 06:48:29 10° 12° (NNE) 1,719 ? -5.8°
Maximum altitude 06:52:12 90° 340° (NNW) 512 ? -5.1°
Drops below altitude 10° 06:55:55 10° 193° (SSW) 1,720 ? -4.3°
Sets 06:58:00 0° 193° (SSW) 2,606 ? -3.9°
